{"data":{"norad_id":55949,"intl_designator":"2023-037AM","name":"STARLINK-5899","alt_names":[],"object_type":"PAYLOAD","status":"ACTIVE","operator":null,"country":"US","launch_date":"2023-03-17","launch_site_code":"AFWTR","launch_vehicle":null,"mission":null,"orbit_class":"UNKNOWN","rcs_meters":null,"size_class":null,"mass_kg":null,"dimensions":null,"purposes":["comms"],"wikipedia_slug":null,"has_3d_model":false,"image_url":null,"decayed_at":null,"tle_current":{"epoch":"2026-09-20T22:13:29.258976Z","epoch_age_seconds":69188,"freshness":"FRESH","line1":"1 55949U 23037AM  26263.92603309 -.00000309  00000+0 -18069-4 0  9999","line2":"2 55949  69.9985 132.3613 0002830 269.7369  90.3465 14.98331823193714","mean_motion":14.98331823,"eccentricity":0.000283,"inclination_deg":69.9985,"raan_deg":132.3613,"arg_perigee_deg":269.7369,"mean_anomaly_deg":90.3465,"bstar":-1.8069e-5,"rev_number":19371,"period_min":96.106882193611,"perigee_km":570.08335048028,"apogee_km":574.01715646574,"semimajor_km":6950.187253473,"source":"CELESTRAK","updated_at":"2026-09-21T09:00:33.345391Z"}}}